Temp
-6 -6 -6 -6 -7 -7 -7 -5 -3 -3 -2 -3 -3 -2 -1 -2 -0 1 1 2 2 4 6 5 6 5 6 5 6 4 5 5 6 6 5 4 5 5 5 5 5 5 6 6
-6 -7 -7 -6 -7 -7 -6 -6 -4 -3 -3 -3 -3 -3 -3 -2 -1 -1 -1 0 2 3 5 5 5 5 5 5 5 5 5 4 4 5 5 4 4 5 5 5 4 4 4 4
-6 -7 -7 -7 -7 -8 -7 -5 -4 -4 -3 -3 -2 -3 -3 -2 -1 -1 -1 -0 2 2 1 3 3 5 4 4 4 4 4 3 4 6 5 4 3 3 4 4 4 3 3 4
-7 -6 -7 -7 -7 -8 -6 -5 -4 -4 -3 -3 -3 -2 -3 -3 -2 -1 -1 -1 0 1 1 2 2 2 2 3 3 2 1 1 2 3 4 3 3 3 3 4 4 4 3 3
-7 -7 -7 -7 -7 -7 -7 -6 -5 -4 -3 -3 -3 -4 -3 -2 -2 -0 -1 -2 -1 -0 0 2 1 0 -0 1 2 1 -1 -1 -0 1 2 2 -0 2 3 3 4 4 4 2
-7 -7 -7 -7 -7 -7 -7 -8 -5 -4 -3 -3 -3 -3 -2 -2 -2 -1 -1 -1 -1 -1 -0 -0 -0 -0 -1 -0 -0 -1 -2 -1 -1 -1 -1 -0 -1 -0 1 3 3 3 3 2
-7 -7 -7 -7 -7 -7 -6 -5 -6 -4 -4 -4 -3 -2 -1 -3 -2 -1 -2 -2 -2 -2 -1 -1 -1 -1 -1 -1 -1 -1 -1 -2 -3 -2 -2 -3 0 1 0 1 2 2 1 1
-7 -7 -7 -7 -7 -8 -7 -6 -6 -5 -4 -3 -2 -2 -2 -2 -3 -3 -3 -2 -2 -2 -2 -2 -2 -3 -2 -2 -2 -2 -2 -3 -3 -3 -4 -0 -0 -1 -0 -1 -0 -0 -0 -0
-7 -7 -7 -7 -7 -7 -7 -7 -7 -6 -5 -4 -2 0 -3 -3 -3 -2 -2 -3 -2 -2 -2 -2 -3 -4 -4 -4 -4 -4 -4 -4 -3 -4 -3 -2 -0 -0 -2 -2 -2 -1 -1 -1
-7 -7 -7 -7 -7 -7 -7 -7 -7 -5 -4 -3 -4 -3 -3 -3 -3 -3 -2 -3 -3 -3 -3 -3 -4 -4 -4 -4 -5 -5 -5 -4 -4 -5 -4 -3 -2 -3 -4 -3 -2 -2 -3 -4
-7 -7 -7 -7 -7 -7 -7 -7 -5 -6 -5 -4 -3 -4 -3 -3 -3 -2 -3 -3 -4 -4 -4 -4 -4 -4 -5 -5 -5 -4 -5 -5 -5 -5 -5 -4 -3 -4 -4 -4 -4 -4 -4 -4
-7 -7 -7 -7 -7 -7 -8 -7 -6 -5 -5 -4 -3 -3 -3 -3 -3 -2 -3 -3 -3 -4 -4 -5 -4 -5 -6 -6 -6 -6 -5 -4 -5 -4 -4 -4 -4 -4 -5 -5 -5 -5 -5 -6
-7 -7 -8 -8 -8 -7 -7 -7 -7 -5 -4 -4 -4 -3 -3 -3 -3 -3 -3 -4 -4 -4 -4 -4 -5 -5 -6 -6 -6 -6 -6 -6 -6 -6 -5 -5 -5 -5 -6 -6 -6 -7 -6 -6
-8 -8 -7 -8 -7 -7 -7 -7 -6 -5 -5 -4 -5 -4 -4 -4 -4 -5 -4 -4 -4 -5 -5 -5 -5 -5 -6 -6 -5 -5 -6 -6 -6 -6 -6 -6 -6 -6 -7 -7 -7 -6 -7 -7
-7 -7 -8 -7 -7 -7 -6 -6 -6 -6 -4 -5 -6 -6 -6 -5 -5 -6 -5 -5 -5 -5 -6 -6 -6 -6 -7 -7 -6 -6 -6 -6 -6 -6 -6 -6 -7 -7 -8 -9 -9 -8 -8 -8
-8 -7 -7 -7 -7 -7 -6 -6 -5 -5 -5 -5 -8 -8 -8 -7 -7 -6 -6 -6 -6 -6 -6 -7 -8 -7 -8 -8 -7 -6 -6 -6 -6 -7 -7 -7 -7 -8 -8 -9 -9 -10 -8 -8
-8 -8 -8 -7 -7 -6 -6 -6 -5 -5 -5 -5 -9 -9 -9 -8 -8 -8 -8 -8 -8 -8 -8 -8 -8 -8 -7 -7 -7 -6 -6 -7 -7 -7 -7 -7 -8 -9 -10 -10 -10 -9 -9 -9
-9 -9 -9 -8 -8 -7 -7 -6 -6 -6 -7 -7 -9 -10 -10 -10 -9 -9 -9 -9 -9 -9 -9 -8 -9 -7 -7 -7 -7 -7 -7 -8 -8 -8 -8 -8 -9 -9 -10 -10 -10 -10 -10 -10
-11 -10 -10 -10 -9 -9 -9 -9 -9 -9 -8 -8 -10 -10 -10 -10 -10 -10 -10 -9 -9 -9 -8 -8 -8 -8 -7 -7 -7 -8 -8 -8 -9 -9 -9 -9 -10 -10 -10 -10 -10 -10 -10 -10
-12 -12 -11 -11 -11 -11 -11 -11 -9 -10 -9 -9 -9 -10 -10 -10 -11 -10 -9 -9 -9 -9 -9 -9 -9 -9 -8 -8 -8 -9 -9 -9 -10 -10 -10 -10 -11 -11 -11 -10 -10 -10 -10 -10
-10 -9 -9 -10 -10 -9 -9 -9 -9 -9 -10 -9 -10 -9 -10 -11 -10 -10 -9 -10 -10 -9 -9 -9 -9 -9 -7 -8 -9 -9 -9 -9 -10 -10 -10 -10 -10 -11 -10 -10 -10 -10 -9 -9
-9 -8 -9 -9 -9 -8 -8 -8 -9 -9 -10 -10 -10 -11 -10 -10 -10 -9 -10 -10 -10 -9 -10 -10 -9 -9 -9 -9 -9 -9 -9 -9 -10 -10 -10 -10 -11 -10 -10 -10 -10 -10 -10 -10
-9 -9 -10 -9 -9 -9 -9 -9 -10 -10 -10 -10 -10 -10 -10 -10 -10 -10 -9 -9 -10 -10 -10 -9 -9 -9 -9 -9 -9 -9 -10 -10 -10 -10 -10 -10 -10 -10 -10 -10 -10 -10 -11 -11
-10 -9 -9 -10 -10 -10 -9 -8 -10 -9 -9 -10 -9 -10 -10 -10 -9 -10 -9 -10 -10 -10 -9 -9 -9 -9 -9 -9 -10 -10 -10 -10 -10 -10 -10 -10 -10 -10 -10 -10 -11 -11 -11 -11
-9 -9 -10 -11 -11 -10 -10 -10 -10 -11 -11 -10 -10 -10 -10 -10 -10 -10 -10 -10 -10 -9 -9 -9 -8 -9 -9 -9 -10 -10 -10 -10 -10 -10 -10 -10 -10 -10 -11 -11 -11 -11 -11 -12
-10 -11 -11 -11 -10 -10 -10 -11 -11 -11 -11 -11 -11 -11 -10 -10 -10 -10 -10 -10 -9 -9 -9 -9 -9 -9 -10 -10 -11 -10 -10 -10 -10 -10 -11 -11 -11 -11 -11 -11 -12 -12 -12 -13
-12 -12 -12 -12 -11 -11 -11 -10 -11 -11 -11 -11 -11 -10 -11 -11 -10 -10 -10 -9 -9 -9 -9 -9 -10 -10 -10 -10 -10 -10 -10 -10 -10 -11 -11 -11 -11 -11 -12 -12 -12 -12 -13 -13
Height
2811 2822 2835 2848 2859 2871 2877 2894 2899 2907 2916 2923 2926 2927 2931 2954 2967 2973 2976 2982 2990 2994 2994 2997 3002 3005 3007 3009 3017 3022 3030 3033 3034 3036 3040 3043 3047 3048 3052 3050 3051 3052 3056 3057
2801 2814 2826 2839 2851 2861 2870 2883 2889 2899 2905 2903 2911 2924 2932 2948 2958 2960 2969 2973 2978 2986 2988 2993 2996 3000 3003 3008 3014 3017 3023 3024 3029 3034 3038 3035 3035 3040 3043 3046 3048 3045 3050 3053
2790 2805 2818 2831 2843 2855 2866 2875 2880 2887 2895 2900 2907 2919 2927 2939 2947 2953 2960 2966 2970 2978 2980 2984 2987 2993 2998 3003 3007 3011 3015 3018 3016 3016 3022 3027 3030 3032 3036 3039 3036 3039 3038 3049
2781 2796 2810 2823 2835 2848 2857 2860 2869 2869 2876 2889 2898 2915 2920 2929 2939 2948 2957 2960 2963 2970 2976 2978 2979 2985 2992 2997 3000 3005 3008 3011 3015 3017 3019 3023 3021 3024 3027 3026 3029 3031 3038 3041
2773 2788 2803 2815 2828 2842 2848 2849 2863 2865 2874 2885 2896 2907 2912 2921 2929 2938 2946 2952 2957 2965 2969 2972 2973 2975 2981 2987 2994 2998 3001 3005 3010 3011 3014 3016 3013 3016 3018 3020 3023 3025 3031 3033
2768 2783 2798 2810 2822 2832 2837 2843 2859 2866 2869 2878 2890 2895 2903 2908 2926 2932 2941 2951 2953 2957 2962 2966 2969 2970 2974 2978 2985 2991 2996 3000 3005 3004 3009 3011 3006 3002 3008 3013 3015 3019 3020 3028
2766 2780 2794 2806 2816 2823 2834 2840 2854 2863 2862 2869 2878 2893 2902 2909 2915 2926 2936 2940 2946 2952 2957 2962 2965 2967 2970 2975 2980 2987 2991 2993 2999 3001 3004 3003 2994 2995 2998 3006 3009 3011 3014 3018
2768 2780 2792 2802 2812 2821 2829 2840 2850 2858 2861 2869 2881 2890 2895 2910 2919 2925 2926 2931 2940 2945 2952 2956 2958 2963 2967 2968 2974 2980 2983 2986 2991 2996 2995 2991 2988 2985 2993 2997 3000 3005 3008 3013
2769 2779 2789 2798 2808 2817 2827 2838 2845 2855 2861 2863 2874 2879 2890 2899 2907 2913 2918 2927 2934 2939 2944 2950 2951 2955 2960 2965 2967 2973 2976 2978 2985 2988 2988 2987 2982 2984 2984 2989 2991 2997 3001 3003
2769 2779 2789 2798 2806 2814 2823 2834 2841 2851 2857 2863 2871 2876 2885 2889 2897 2905 2911 2918 2924 2931 2936 2943 2947 2947 2951 2955 2958 2963 2968 2971 2973 2977 2980 2978 2979 2976 2978 2988 2990 2990 2993 2994
2771 2779 2788 2796 2803 2810 2817 2829 2836 2847 2854 2858 2866 2870 2875 2882 2889 2895 2902 2913 2915 2923 2931 2936 2937 2938 2942 2945 2946 2949 2954 2961 2965 2971 2973 2973 2972 2971 2977 2977 2979 2983 2985 2987
2773 2781 2788 2794 2800 2806 2814 2823 2831 2842 2852 2857 2863 2868 2872 2876 2884 2890 2894 2901 2905 2913 2921 2925 2929 2932 2934 2937 2939 2943 2949 2948 2953 2958 2961 2963 2964 2967 2969 2971 2973 2976 2980 2981
2774 2779 2787 2794 2799 2805 2811 2819 2830 2838 2845 2852 2859 2862 2867 2873 2878 2885 2888 2893 2902 2906 2912 2916 2920 2924 2928 2930 2931 2936 2941 2944 2949 2955 2956 2958 2962 2963 2962 2967 2970 2970 2973 2975
2774 2779 2785 2791 2795 2800 2808 2819 2827 2833 2839 2847 2852 2858 2862 2868 2873 2879 2886 2891 2896 2904 2906 2911 2913 2919 2923 2924 2928 2931 2935 2940 2943 2948 2950 2952 2957 2958 2958 2960 2963 2966 2966 2969
2773 2778 2783 2789 2792 2800 2807 2817 2822 2831 2836 2837 2845 2852 2859 2865 2872 2876 2879 2887 2893 2896 2902 2908 2910 2915 2919 2924 2928 2929 2932 2935 2936 2940 2945 2948 2951 2954 2956 2958 2957 2959 2961 2962
2773 2778 2784 2790 2795 2801 2807 2815 2819 2826 2833 2836 2844 2852 2857 2865 2869 2873 2878 2883 2888 2895 2898 2904 2906 2909 2918 2921 2924 2927 2931 2933 2935 2939 2942 2944 2949 2952 2951 2953 2953 2954 2955 2956
2773 2775 2780 2785 2791 2795 2801 2808 2817 2820 2825 2833 2843 2853 2859 2866 2868 2871 2877 2883 2885 2894 2898 2901 2906 2911 2915 2916 2922 2924 2927 2931 2934 2936 2939 2941 2943 2944 2945 2946 2949 2949 2950 2951
2777 2780 2783 2787 2791 2797 2801 2807 2812 2818 2823 2829 2838 2851 2861 2864 2867 2870 2876 2880 2889 2896 2898 2900 2903 2907 2908 2912 2917 2918 2920 2924 2929 2932 2933 2935 2940 2940 2942 2942 2942 2943 2945 2947
2785 2787 2789 2792 2798 2799 2803 2808 2814 2821 2827 2826 2836 2842 2852 2860 2868 2872 2879 2884 2889 2893 2894 2899 2901 2902 2904 2908 2909 2911 2912 2919 2922 2926 2927 2929 2934 2938 2940 2938 2939 2939 2942 2943
2798 2801 2805 2806 2807 2810 2813 2818 2823 2825 2826 2828 2835 2839 2846 2856 2863 2872 2880 2883 2888 2892 2897 2897 2895 2896 2901 2902 2902 2907 2910 2914 2917 2920 2923 2926 2930 2933 2935 2934 2937 2937 2937 2939
2804 2805 2807 2810 2813 2817 2819 2822 2826 2831 2835 2839 2842 2847 2850 2862 2866 2872 2878 2882 2887 2891 2894 2894 2893 2894 2896 2897 2899 2904 2908 2909 2913 2915 2919 2923 2926 2929 2930 2931 2934 2934 2933 2933
2808 2809 2812 2815 2817 2819 2822 2824 2829 2834 2838 2842 2844 2849 2853 2859 2866 2871 2877 2880 2885 2889 2891 2893 2892 2891 2890 2893 2898 2903 2904 2906 2909 2912 2916 2919 2922 2925 2926 2928 2930 2930 2927 2925
2813 2815 2818 2821 2823 2824 2825 2826 2830 2833 2835 2839 2842 2847 2853 2860 2865 2870 2875 2880 2884 2887 2888 2888 2887 2887 2890 2893 2896 2900 2902 2904 2907 2910 2913 2916 2919 2921 2923 2923 2924 2923 2921 2919
2818 2820 2822 2824 2825 2828 2830 2831 2831 2832 2835 2838 2843 2849 2854 2858 2864 2869 2875 2880 2883 2884 2884 2883 2884 2886 2888 2891 2894 2898 2900 2903 2905 2908 2911 2914 2915 2916 2917 2917 2917 2915 2912 2910
2820 2821 2822 2825 2826 2828 2830 2832 2834 2835 2837 2840 2846 2851 2855 2860 2865 2870 2874 2877 2878 2879 2879 2880 2882 2885 2887 2890 2894 2897 2899 2900 2904 2906 2908 2909 2909 2909 2909 2908 2906 2905 2903 2901
2821 2822 2824 2825 2827 2829 2832 2835 2836 2839 2841 2846 2851 2854 2859 2862 2865 2869 2872 2875 2876 2877 2877 2879 2883 2885 2887 2890 2893 2894 2897 2900 2901 2902 2903 2903 2902 2901 2900 2899 2897 2895 2892 2889
2822 2824 2827 2828 2830 2832 2835 2838 2840 2843 2846 2849 2852 2855 2859 2862 2865 2868 2870 2872 2873 2873 2875 2878 2881 2883 2885 2887 2890 2892 2893 2894 2895 2896 2896 2895 2894 2892 2890 2888 2886 2884 2881 2878
Wind_Speed
55 52 50 47 44 42 43 52 39 53 55 71 72 71 75 43 44 36 29 38 38 35 36 38 32 32 25 32 32 43 34 17 20 29 20 25 26 29 33 27 17 30 15 3
57 54 50 48 46 45 43 59 43 42 46 63 71 57 65 40 32 44 32 36 38 31 25 30 33 32 23 25 31 38 36 16 14 17 22 22 29 32 33 35 24 25 12 6
57 56 52 49 47 45 43 58 28 58 66 75 75 64 52 55 38 32 41 37 37 33 32 30 23 34 32 26 33 33 32 22 23 18 18 24 31 31 31 35 35 27 32 16
58 59 54 50 46 48 50 66 23 52 70 72 76 72 52 58 42 37 36 35 49 45 36 35 32 21 33 33 36 36 33 29 25 30 25 15 19 20 36 40 40 32 30 32
55 58 54 51 47 47 49 72 26 45 59 74 76 64 49 52 58 52 44 34 39 40 39 46 40 26 30 37 38 34 27 20 25 27 26 25 24 24 25 38 37 38 34 30
56 55 53 48 47 52 52 54 52 45 53 68 73 66 68 62 48 58 44 43 31 45 41 38 35 42 28 37 37 37 34 33 27 18 25 19 22 31 29 28 36 33 35 28
53 51 48 45 48 53 55 60 64 35 32 67 72 64 64 59 55 54 53 42 37 38 42 43 42 33 33 29 28 30 34 40 27 13 15 7 14 15 19 30 27 28 27 25
48 46 45 44 48 50 50 52 54 40 26 58 55 48 53 57 42 41 44 40 40 47 41 39 22 18 26 32 36 34 31 34 15 12 16 10 14 18 19 21 27 30 30 25
42 43 41 43 47 50 47 45 44 61 37 39 53 63 62 57 49 44 48 43 48 45 40 32 21 14 14 14 14 29 26 30 24 17 7 10 14 16 16 16 23 19 24 27
36 39 41 45 46 50 49 52 39 54 34 44 41 52 56 52 57 52 51 46 43 46 47 32 21 13 18 17 21 32 32 29 30 17 11 10 11 15 20 11 7 19 21 25
38 38 38 38 37 43 48 55 39 43 38 30 38 45 53 59 55 57 47 46 42 39 32 26 15 13 22 18 21 33 33 26 22 20 14 14 19 21 19 15 16 18 25 27
35 34 32 34 37 40 45 55 45 37 35 31 37 32 46 45 50 54 53 50 45 38 32 22 20 15 20 20 16 19 22 30 22 24 16 12 20 23 24 21 21 20 18 18
27 32 30 36 34 37 43 48 56 40 36 34 30 28 38 42 43 42 55 48 43 44 46 36 22 19 23 19 18 23 20 23 17 17 20 15 19 21 23 23 24 19 20 21
26 23 24 25 20 34 45 43 46 38 34 38 31 28 27 30 33 31 31 39 43 38 39 38 21 21 22 25 15 23 22 24 24 23 13 17 25 29 27 24 23 23 25 19
25 25 28 25 26 39 48 44 39 39 34 26 28 27 21 21 22 22 23 29 33 33 32 29 19 19 19 18 13 19 20 25 29 26 23 23 21 24 19 17 19 21 17 18
20 26 30 30 27 25 34 36 32 44 44 24 32 26 23 21 23 24 25 23 24 25 25 23 17 22 15 16 13 13 17 15 18 17 12 19 18 21 24 24 20 17 17 16
19 26 26 34 35 38 47 39 44 41 36 34 32 24 29 28 28 28 27 25 24 20 18 13 13 17 18 15 10 11 15 15 16 17 14 19 21 22 19 21 24 21 17 16
34 32 31 33 31 36 33 32 40 39 34 34 17 31 30 28 29 27 24 22 20 18 16 16 13 14 16 10 15 12 11 15 19 16 20 18 21 21 15 19 21 17 15 15
27 28 28 30 30 38 38 37 29 19 14 13 25 35 35 31 23 25 25 22 20 17 16 15 13 11 10 10 12 10 13 16 15 16 17 21 23 20 17 23 18 14 14 14
14 16 16 24 31 26 21 21 17 18 18 12 32 32 29 31 29 23 19 13 12 9 11 10 11 15 14 8 9 9 11 15 14 18 20 19 17 17 23 22 15 14 14 15
12 13 18 29 25 20 10 6 7 7 10 10 14 22 31 24 23 22 10 9 7 6 7 7 3 8 12 16 13 12 13 10 16 21 23 17 17 20 17 15 16 17 18 21
8 13 19 21 9 6 5 6 8 6 7 16 23 28 28 24 22 11 9 7 7 4 12 8 4 8 6 12 16 18 15 12 13 13 16 17 20 16 16 16 17 19 22 24
18 23 11 7 3 5 4 3 4 8 22 27 29 29 28 22 12 11 6 5 5 10 6 4 5 7 11 11 11 16 17 16 16 15 14 17 16 14 14 16 18 21 24 27
12 6 5 3 5 5 3 6 13 12 20 22 25 26 16 17 10 7 6 7 7 6 5 7 8 11 11 13 13 16 18 18 19 18 15 12 11 13 17 20 21 25 29 31
5 3 3 4 7 13 11 8 14 16 21 25 27 22 20 16 7 6 6 8 4 7 7 9 11 15 15 15 16 16 19 17 17 14 14 16 18 22 26 28 30 31 34 35
4 4 8 7 12 17 17 18 21 17 16 19 15 9 10 8 7 7 5 6 6 8 12 10 14 15 14 14 18 17 13 11 12 15 18 21 26 31 33 35 36 37 38 39
5 10 10 10 15 18 20 19 16 14 20 13 9 6 5 8 5 6 8 7 8 8 9 10 18 17 17 16 14 12 14 17 19 23 27 31 36 38 38 38 36 37 38 38
Wind_Direction
219 217 217 216 215 213 217 188 208 209 210 183 196 212 220 209 211 196 202 209 218 219 205 201 206 210 204 197 200 200 207 222 219 212 213 223 224 225 221 225 212 226 230 153
216 216 212 210 211 208 206 195 214 211 210 187 196 210 210 211 207 206 197 211 207 210 206 205 210 207 200 200 200 201 200 206 199 202 219 224 220 221 225 228 240 229 212 171
213 214 210 205 207 204 191 189 199 200 197 203 205 200 213 206 199 201 203 210 209 213 215 205 200 209 208 190 193 198 198 210 209 217 221 218 224 225 223 222 229 225 227 208
213 208 208 203 204 202 193 195 201 182 190 194 204 209 213 209 207 195 197 211 216 211 215 205 203 215 210 208 204 198 203 218 226 234 229 224 236 238 228 231 230 226 235 231
204 202 205 201 199 201 201 208 202 188 191 199 201 206 209 217 210 210 202 214 204 207 212 210 210 206 203 205 203 195 202 212 220 237 239 250 257 239 235 232 235 241 245 241
200 197 199 198 199 200 204 213 202 190 194 198 202 208 211 216 216 216 220 221 216 218 219 215 214 213 214 210 212 208 208 220 227 238 240 241 256 237 230 236 231 236 238 245
191 192 194 195 199 202 209 207 213 202 202 194 202 210 220 217 215 222 222 219 215 222 219 220 223 212 219 226 236 251 247 226 219 239 189 220 240 241 233 230 229 229 239 238
186 189 192 194 198 202 207 207 211 205 201 203 205 216 224 220 216 216 222 220 213 225 222 222 219 218 233 241 251 236 228 216 198 194 206 246 235 243 230 212 237 236 238 246
186 191 193 195 196 201 206 202 207 212 222 212 212 214 211 211 206 207 217 220 224 224 221 214 212 205 197 199 198 208 198 214 202 193 192 214 259 250 229 201 243 221 222 220
184 185 189 195 202 201 205 200 210 201 214 220 208 217 207 211 212 212 216 216 219 228 226 214 209 196 195 186 184 182 191 196 201 195 217 237 242 194 179 185 240 203 210 214
179 184 191 196 202 198 198 199 189 205 218 214 216 213 214 215 217 216 217 213 211 211 206 205 198 192 192 193 198 189 187 183 199 203 207 232 207 201 207 221 214 204 212 222
186 191 195 197 199 205 205 202 191 192 211 223 220 224 222 221 228 232 224 221 217 205 199 203 203 179 187 189 184 199 197 200 195 203 214 186 213 228 212 221 231 227 231 235
191 194 194 199 210 204 206 209 201 200 202 208 209 210 217 222 221 231 225 218 220 219 223 211 193 191 185 181 197 192 195 207 209 206 217 212 202 211 219 225 229 229 243 248
181 185 200 208 217 199 199 200 206 202 211 204 197 209 209 220 229 229 233 236 230 225 220 211 201 197 203 198 204 207 206 188 209 199 199 194 183 203 212 221 222 233 251 259
197 198 194 193 196 187 195 200 204 210 189 175 169 189 187 195 200 210 213 219 223 227 213 208 193 194 176 178 182 202 208 204 206 210 208 206 208 211 212 214 233 245 255 265
189 190 192 195 195 200 197 189 195 211 215 189 138 145 162 180 194 198 200 204 203 209 202 189 168 173 180 171 196 198 200 210 215 208 208 222 200 202 222 217 228 232 261 256
194 197 192 202 201 196 188 190 193 204 192 175 131 128 134 147 156 155 152 157 161 168 162 167 178 187 194 187 174 182 197 207 216 205 202 210 204 208 214 230 236 244 250 250
112 116 139 165 170 184 186 187 181 178 168 155 135 135 136 145 146 139 158 156 156 173 179 175 181 198 205 214 215 201 206 208 207 221 210 219 203 214 223 235 248 236 237 246
80 77 83 91 118 131 133 134 130 142 165 128 157 150 149 151 162 158 160 172 179 182 185 185 193 204 208 210 199 210 198 226 229 208 210 215 221 209 212 238 242 232 238 253
113 108 111 125 115 107 109 98 93 88 85 108 144 160 148 164 159 162 163 161 168 165 169 175 204 220 225 217 199 198 211 208 206 194 198 204 211 205 218 239 235 239 246 263
155 154 131 129 128 123 112 105 101 84 88 100 134 163 150 156 165 152 145 136 140 145 178 202 225 254 243 210 203 202 210 200 200 206 212 211 226 225 233 229 239 252 260 272
142 147 142 137 102 60 80 105 88 97 106 134 138 137 139 139 156 141 129 129 139 161 171 189 227 221 198 192 199 213 212 205 198 204 208 205 220 233 233 241 252 268 278 284
146 135 130 134 61 75 66 103 109 129 148 156 157 152 142 145 135 134 128 136 139 151 167 203 230 199 188 192 190 194 202 202 191 210 201 209 217 235 251 263 269 273 276 281
142 128 135 115 86 79 95 169 172 174 170 166 172 162 159 149 127 126 108 131 150 173 208 219 201 178 181 188 196 189 195 201 203 202 207 222 246 265 274 277 278 279 284 288
163 145 117 115 168 175 155 152 130 140 163 169 164 163 159 141 117 114 136 156 178 204 214 214 184 176 186 203 190 179 193 192 190 214 239 262 277 288 291 290 287 285 286 285
143 101 116 161 137 133 132 140 141 157 155 131 147 128 149 159 135 155 158 169 204 215 207 180 164 171 187 195 170 190 205 227 257 264 265 272 282 289 289 287 286 285 285 285
101 127 125 131 133 136 140 140 132 135 140 148 154 134 142 145 166 180 185 201 215 202 193 179 179 183 193 198 205 236 253 256 262 269 274 276 281 284 284 283 281 283 286 285